| time (UTC) | temp F | wind direction | speed MPH | gust MPH | rain 1hr in | rain 24hr in | rain mn in | humidity % | barometer mb |
| 20260905062242 | 63 | 0 | 0.0 | 1.0 | 0.00 | 0.00 | 0.00 | 91 | 1012.0 |
| 20260905061743 | 63 | 5 | 0.0 | 1.0 | 0.00 | 0.00 | 0.00 | 91 | 1012.0 |
| 20260905061242 | 63 | 5 | 0.0 | 0.0 | 0.00 | 0.00 | 0.00 | 91 | 1011.9 |
| 20260905060740 | 63 | 0 | 0.0 | 0.0 | 0.00 | 0.00 | 0.00 | 91 | 1011.9 |
| 20260905060240 | 63 | 9 | 0.0 | 0.0 | 0.00 | 0.00 | 0.00 | 90 | 1011.9 |
| 20260905055741 | 63 | 355 | 0.0 | 0.0 | 0.00 | 0.00 | 0.00 | 90 | 1011.9 |
| 20260905054739 | 63 | 0 | 0.0 | 0.0 | 0.00 | 0.00 | 0.00 | 90 | 1012.0 |
| 20260905054240 | 63 | 0 | 0.0 | 0.0 | 0.00 | 0.00 | 0.00 | 90 | 1012.1 |
| 20260905053740 | 64 | 0 | 0.0 | 0.0 | 0.00 | 0.00 | 0.00 | 90 | 1012.1 |
| 20260905052741 | 64 | 10 | 0.0 | 0.0 | 0.00 | 0.00 | 0.00 | 90 | 1012.1 |
| 20260905052240 | 64 | 5 | 0.0 | 0.0 | 0.00 | 0.00 | 0.00 | 90 | 1012.2 |
| 20260905051736 | 64 | 5 | 0.0 | 0.0 | 0.00 | 0.00 | 0.00 | 90 | 1012.2 |
| 20260905051237 | 64 | 355 | 0.0 | 0.0 | 0.00 | 0.00 | 0.00 | 89 | 1012.2 |
| 20260905045236 | 64 | 5 | 0.0 | 0.0 | 0.00 | 0.00 | 0.00 | 89 | 1012.4 |
| 20260905044736 | 64 | 9 | 0.0 | 0.0 | 0.00 | 0.00 | 0.00 | 89 | 1012.3 |
| 20260905044236 | 64 | 0 | 0.0 | 0.0 | 0.00 | 0.00 | 0.00 | 88 | 1012.3 |
| 20260905043232 | 64 | 9 | 0.0 | 0.0 | 0.00 | 0.00 | 0.00 | 88 | 1012.2 |
| 20260905042232 | 64 | 0 | 0.0 | 0.0 | 0.00 | 0.00 | 0.00 | 87 | 1012.2 |
| 20260905041733 | 64 | 0 | 0.0 | 0.0 | 0.00 | 0.00 | 0.00 | 87 | 1012.2 |
| 20260905041232 | 64 | 355 | 0.0 | 0.0 | 0.00 | 0.00 | 0.00 | 87 | 1012.1 |
| 20260905040732 | 65 | 355 | 0.0 | 0.0 | 0.00 | 0.00 | 0.00 | 87 | 1012.2 |
| 20260905040232 | 65 | 355 | 0.0 | 0.0 | 0.00 | 0.00 | 0.00 | 87 | 1012.2 |
| 20260905035232 | 65 | 355 | 0.0 | 0.0 | 0.00 | 0.00 | 0.00 | 86 | 1012.2 |
| 20260905034732 | 65 | 5 | 0.0 | 0.0 | 0.00 | 0.00 | 0.00 | 86 | 1012.2 |
| 20260905034232 | 65 | 0 | 0.0 | 0.0 | 0.00 | 0.00 | 0.00 | 86 | 1012.2 |
| 20260905033732 | 65 | 0 | 0.0 | 0.0 | 0.00 | 0.00 | 0.00 | 86 | 1012.3 |
| 20260905033232 | 65 | 5 | 0.0 | 0.0 | 0.00 | 0.00 | 0.00 | 86 | 1012.3 |
| 20260905032232 | 65 | 12 | 0.0 | 0.0 | 0.00 | 0.00 | 0.00 | 86 | 1012.3 |
| 20260905031228 | 65 | 9 | 0.0 | 0.0 | 0.00 | 0.00 | 0.00 | 85 | 1012.4 |
| 20260905030726 | 65 | 351 | 0.0 | 0.0 | 0.00 | 0.00 | 0.00 | 85 | 1012.3 |
| 20260905030225 | 65 | 355 | 0.0 | 0.0 | 0.00 | 0.00 | 0.00 | 85 | 1012.4 |
| 20260905025725 | 65 | 339 | 0.0 | 0.0 | 0.00 | 0.00 | 0.00 | 85 | 1012.5 |
| 20260905025226 | 65 | 339 | 0.0 | 0.0 | 0.00 | 0.00 | 0.00 | 85 | 1012.5 |
| 20260905024725 | 65 | 18 | 0.0 | 0.0 | 0.00 | 0.00 | 0.00 | 85 | 1012.5 |
| 20260905024223 | 65 | 23 | 0.0 | 0.0 | 0.00 | 0.00 | 0.00 | 85 | 1012.5 |
| 20260905023224 | 66 | 351 | 0.0 | 0.0 | 0.00 | 0.00 | 0.00 | 85 | 1012.5 |
| 20260905022722 | 66 | 355 | 0.0 | 0.0 | 0.00 | 0.00 | 0.00 | 85 | 1012.5 |
| 20260905022218 | 66 | 355 | 0.0 | 0.0 | 0.00 | 0.00 | 0.00 | 85 | 1012.5 |
| 20260905021718 | 66 | 351 | 0.0 | 0.0 | 0.00 | 0.00 | 0.00 | 85 | 1012.5 |
| 20260905021220 | 66 | 0 | 0.0 | 0.0 | 0.00 | 0.00 | 0.00 | 85 | 1012.5 |
| 20260905020718 | 66 | 0 | 0.0 | 0.0 | 0.00 | 0.00 | 0.00 | 85 | 1012.6 |
| 20260905020215 | 66 | 5 | 0.0 | 0.0 | 0.00 | 0.00 | 0.00 | 85 | 1012.7 |
| 20260905015712 | 66 | 5 | 0.0 | 0.0 | 0.00 | 0.00 | 0.00 | 85 | 1012.7 |
| 20260905015211 | 66 | 355 | 0.0 | 0.0 | 0.00 | 0.00 | 0.00 | 85 | 1012.7 |
| 20260905014710 | 66 | 0 | 0.0 | 3.0 | 0.00 | 0.00 | 0.00 | 85 | 1012.8 |
| 20260905012655 | 66 | 338 | 0.0 | 0.0 | 0.00 | 0.00 | 0.00 | 85 | 1012.8 |
| 20260905012148 | 66 | 344 | 0.0 | 0.0 | 0.00 | 0.00 | 0.00 | 85 | 1012.9 |
| 20260905011641 | 66 | 0 | 0.0 | 0.0 | 0.00 | 0.00 | 0.00 | 85 | 1012.8 |
| 20260905011141 | 66 | 5 | 0.0 | 0.0 | 0.00 | 0.00 | 0.00 | 84 | 1012.8 |
| 20260905010640 | 66 | 333 | 0.0 | 0.0 | 0.00 | 0.00 | 0.00 | 84 | 1012.8 |
| 20260905005640 | 66 | 355 | 0.0 | 1.0 | 0.00 | 0.00 | 0.00 | 83 | 1012.7 |
| 20260905005138 | 67 | 355 | 0.0 | 1.0 | 0.00 | 0.00 | 0.00 | 83 | 1012.6 |
| 20260905004634 | 67 | 355 | 0.0 | 0.0 | 0.00 | 0.00 | 0.00 | 82 | 1012.6 |
| 20260905004134 | 67 | 355 | 0.0 | 0.0 | 0.00 | 0.00 | 0.00 | 81 | 1012.6 |
| 20260905003633 | 67 | 355 | 0.0 | 0.0 | 0.00 | 0.00 | 0.00 | 81 | 1012.5 |
| 20260905003135 | 67 | 355 | 0.0 | 0.0 | 0.00 | 0.00 | 0.00 | 81 | 1012.3 |
| 20260905002634 | 67 | 355 | 0.0 | 0.0 | 0.00 | 0.00 | 0.00 | 81 | 1012.3 |
| 20260905002134 | 67 | 355 | 0.0 | 0.0 | 0.00 | 0.00 | 0.00 | 80 | 1012.2 |
| 20260905001634 | 67 | 5 | 0.0 | 0.0 | 0.00 | 0.00 | 0.00 | 80 | 1012.3 |
| 20260905001135 | 67 | 355 | 0.0 | 0.0 | 0.00 | 0.00 | 0.00 | 80 | 1012.2 |
| 20260905000634 | 67 | 355 | 0.0 | 0.0 | 0.00 | 0.00 | 0.00 | 79 | 1012.1 |
| 20260904235635 | 68 | 5 | 0.0 | 2.0 | 0.00 | 0.00 | 0.00 | 78 | 1011.9 |
| 20260904235135 | 68 | 5 | 0.0 | 1.0 | 0.00 | 0.00 | 0.00 | 77 | 1011.8 |
| 20260904234634 | 69 | 0 | 0.0 | 0.0 | 0.00 | 0.00 | 0.00 | 76 | 1011.7 |
| 20260904233130 | 69 | 0 | 1.0 | 3.0 | 0.00 | 0.00 | 0.00 | 73 | 1011.6 |
| 20260904232629 | 70 | 5 | 0.0 | 3.0 | 0.00 | 0.00 | 0.00 | 73 | 1011.5 |
| 20260904232128 | 70 | 355 | 0.0 | 7.0 | 0.00 | 0.00 | 0.00 | 72 | 1011.7 |
| 20260904231128 | 71 | 18 | 2.0 | 5.0 | 0.00 | 0.00 | 0.00 | 72 | 1011.6 |
| 20260904230628 | 71 | 355 | 2.0 | 7.0 | 0.00 | 0.00 | 0.00 | 72 | 1011.6 |
| 20260904225626 | 71 | 12 | 0.0 | 0.0 | 0.00 | 0.00 | 0.00 | 71 | 1011.6 |
| 20260904225126 | 71 | 18 | 0.0 | 0.0 | 0.00 | 0.00 | 0.00 | 71 | 1011.6 |
| 20260904224626 | 72 | 355 | 0.0 | 0.0 | 0.00 | 0.00 | 0.00 | 71 | 1011.5 |
| 20260904223121 | 72 | 355 | 1.0 | 5.0 | 0.00 | 0.00 | 0.00 | 70 | 1011.5 |
| 20260904222620 | 72 | 340 | 0.0 | 3.0 | 0.00 | 0.00 | 0.00 | 70 | 1011.6 |
| 20260904222117 | 73 | 355 | 1.0 | 7.0 | 0.00 | 0.00 | 0.00 | 70 | 1011.7 |
| 20260904220616 | 73 | 350 | 2.0 | 6.0 | 0.00 | 0.00 | 0.00 | 70 | 1011.8 |
| 20260904220116 | 73 | 313 | 2.0 | 7.0 | 0.00 | 0.00 | 0.00 | 70 | 1011.7 |
| 20260904215616 | 73 | 11 | 1.0 | 7.0 | 0.00 | 0.00 | 0.00 | 71 | 1011.8 |
| 20260904215115 | 73 | 5 | 1.0 | 5.0 | 0.00 | 0.00 | 0.00 | 70 | 1011.7 |
| 20260904214610 | 73 | 10 | 2.0 | 7.0 | 0.00 | 0.00 | 0.00 | 70 | 1011.7 |
| 20260904213557 | 73 | 15 | 0.0 | 1.0 | 0.00 | 0.00 | 0.00 | 70 | 1011.7 |
| 20260904212039 | 74 | 15 | 4.0 | 9.0 | 0.00 | 0.00 | 0.00 | 66 | 1011.6 |
| 20260904211533 | 74 | 14 | 2.0 | 8.0 | 0.00 | 0.00 | 0.00 | 66 | 1011.6 |
| 20260904211028 | 75 | 36 | 3.0 | 9.0 | 0.00 | 0.00 | 0.00 | 65 | 1011.6 |
| 20260904210521 | 75 | 348 | 3.0 | 9.0 | 0.00 | 0.00 | 0.00 | 66 | 1011.7 |
| 20260904205003 | 76 | 9 | 3.0 | 9.0 | 0.00 | 0.00 | 0.00 | 66 | 1011.7 |
| 20260904204457 | 76 | 355 | 1.0 | 8.0 | 0.00 | 0.00 | 0.00 | 67 | 1011.7 |
| 20260904203952 | 75 | 324 | 0.0 | 5.0 | 0.00 | 0.00 | 0.00 | 67 | 1011.6 |
| 20260904203445 | 75 | 351 | 1.0 | 5.0 | 0.00 | 0.00 | 0.00 | 67 | 1011.7 |
| 20260904202940 | 75 | 17 | 2.0 | 8.0 | 0.00 | 0.00 | 0.00 | 66 | 1011.7 |
| 20260904202434 | 75 | 329 | 2.0 | 8.0 | 0.00 | 0.00 | 0.00 | 65 | 1011.8 |
| 20260904201926 | 76 | 355 | 2.0 | 8.0 | 0.00 | 0.00 | 0.00 | 66 | 1011.7 |
| 20260904201421 | 76 | 0 | 3.0 | 8.0 | 0.00 | 0.00 | 0.00 | 66 | 1011.8 |
| 20260904200915 | 75 | 0 | 2.0 | 8.0 | 0.00 | 0.00 | 0.00 | 66 | 1011.8 |
| 20260904200410 | 75 | 24 | 1.0 | 9.0 | 0.00 | 0.00 | 0.00 | 70 | 1011.9 |
| 20260904195903 | 75 | 325 | 1.0 | 9.0 | 0.00 | 0.00 | 0.00 | 67 | 1012.0 |
| 20260904195357 | 75 | 11 | 0.0 | 1.0 | 0.00 | 0.00 | 0.00 | 71 | 1012.1 |
| 20260904194346 | 75 | 0 | 0.0 | 4.0 | 0.00 | 0.00 | 0.00 | 67 | 1012.2 |
| 20260904193840 | 75 | 16 | 2.0 | 9.0 | 0.00 | 0.00 | 0.00 | 68 | 1012.2 |
| 20260904193334 | 75 | 5 | 4.0 | 10.0 | 0.00 | 0.00 | 0.00 | 66 | 1012.1 |
| 20260904192321 | 75 | 338 | 4.0 | 12.0 | 0.00 | 0.00 | 0.00 | 67 | 1012.0 |
| 20260904191815 | 75 | 355 | 4.0 | 9.0 | 0.00 | 0.00 | 0.00 | 67 | 1012.0 |
| 20260904191309 | 75 | 5 | 4.0 | 10.0 | 0.00 | 0.00 | 0.00 | 65 | 1012.1 |
| 20260904190803 | 76 | 333 | 2.0 | 10.0 | 0.00 | 0.00 | 0.00 | 65 | 1012.1 |
| 20260904190259 | 76 | 348 | 2.0 | 10.0 | 0.00 | 0.00 | 0.00 | 65 | 1012.1 |
| 20260904185752 | 76 | 355 | 2.0 | 10.0 | 0.00 | 0.00 | 0.00 | 65 | 1012.2 |
| 20260904185245 | 76 | 332 | 1.0 | 10.0 | 0.00 | 0.00 | 0.00 | 64 | 1012.2 |
| 20260904184233 | 76 | 304 | 2.0 | 10.0 | 0.00 | 0.00 | 0.00 | 69 | 1012.3 |
| 20260904183727 | 75 | 17 | 3.0 | 10.0 | 0.00 | 0.00 | 0.00 | 68 | 1012.3 |
| 20260904183221 | 75 | 0 | 2.0 | 8.0 | 0.00 | 0.00 | 0.00 | 68 | 1012.3 |
| 20260904182715 | 75 | 11 | 1.0 | 5.0 | 0.00 | 0.00 | 0.00 | 71 | 1012.4 |
| 20260904182210 | 74 | 306 | 1.0 | 8.0 | 0.00 | 0.00 | 0.00 | 70 | 1012.3 |
| 20260904181703 | 74 | 350 | 3.0 | 9.0 | 0.00 | 0.00 | 0.00 | 69 | 1012.4 |
| 20260904181158 | 75 | 355 | 2.0 | 9.0 | 0.00 | 0.00 | 0.00 | 67 | 1012.4 |
| 20260904180651 | 75 | 22 | 0.0 | 0.0 | 0.00 | 0.00 | 0.00 | 69 | 1012.3 |
| 20260904180149 | 74 | 355 | 0.0 | 0.0 | 0.00 | 0.00 | 0.00 | 76 | 1012.3 |
| 20260904175650 | 74 | 355 | 0.0 | 0.0 | 0.00 | 0.00 | 0.00 | 70 | 1012.3 |
| 20260904175147 | 75 | 340 | 0.0 | 4.0 | 0.00 | 0.00 | 0.00 | 69 | 1012.3 |
| 20260904174647 | 75 | 0 | 1.0 | 10.0 | 0.00 | 0.00 | 0.00 | 69 | 1012.4 |
| 20260904174148 | 75 | 22 | 1.0 | 10.0 | 0.00 | 0.00 | 0.00 | 70 | 1012.5 |
| 20260904173645 | 76 | 355 | 0.0 | 0.0 | 0.00 | 0.00 | 0.00 | 69 | 1012.5 |
| 20260904173145 | 76 | 0 | 1.0 | 7.0 | 0.00 | 0.00 | 0.00 | 71 | 1012.5 |
| 20260904172646 | 75 | 351 | 3.0 | 11.0 | 0.00 | 0.00 | 0.00 | 72 | 1012.5 |
| 20260904172145 | 75 | 5 | 5.0 | 11.0 | 0.00 | 0.00 | 0.00 | 70 | 1012.6 |
| 20260904171646 | 76 | 0 | 4.0 | 11.0 | 0.00 | 0.00 | 0.00 | 67 | 1012.6 |
| 20260904170645 | 76 | 350 | 4.0 | 11.0 | 0.00 | 0.00 | 0.00 | 69 | 1012.5 |
| 20260904170143 | 76 | 17 | 4.0 | 11.0 | 0.00 | 0.00 | 0.00 | 70 | 1012.5 |
| 20260904165644 | 76 | 0 | 2.0 | 10.0 | 0.00 | 0.00 | 0.00 | 70 | 1012.5 |
| 20260904165143 | 75 | 26 | 2.0 | 7.0 | 0.00 | 0.00 | 0.00 | 73 | 1012.5 |
| 20260904164143 | 74 | 13 | 2.0 | 9.0 | 0.00 | 0.00 | 0.00 | 70 | 1012.7 |
| 20260904163644 | 74 | 355 | 2.0 | 6.0 | 0.00 | 0.00 | 0.00 | 73 | 1012.6 |
| 20260904163141 | 74 | 5 | 2.0 | 6.0 | 0.00 | 0.00 | 0.00 | 74 | 1012.7 |
| 20260904162642 | 74 | 346 | 2.0 | 10.0 | 0.00 | 0.00 | 0.00 | 71 | 1012.8 |
| 20260904162141 | 74 | 248 | 3.0 | 10.0 | 0.00 | 0.00 | 0.00 | 74 | 1012.8 |
| 20260904161640 | 74 | 11 | 3.0 | 10.0 | 0.00 | 0.00 | 0.00 | 71 | 1012.8 |
| 20260904161139 | 74 | 11 | 2.0 | 10.0 | 0.00 | 0.00 | 0.00 | 73 | 1012.8 |
| 20260904160639 | 74 | 5 | 3.0 | 8.0 | 0.00 | 0.00 | 0.00 | 71 | 1012.8 |
| 20260904160137 | 74 | 355 | 2.0 | 8.0 | 0.00 | 0.00 | 0.00 | 70 | 1012.7 |
| 20260904155640 | 75 | 331 | 0.0 | 4.0 | 0.00 | 0.00 | 0.00 | 74 | 1012.8 |
| 20260904155138 | 75 | 5 | 1.0 | 5.0 | 0.00 | 0.00 | 0.00 | 72 | 1012.7 |
| 20260904154635 | 74 | 355 | 2.0 | 7.0 | 0.00 | 0.00 | 0.00 | 74 | 1012.7 |
| 20260904154135 | 74 | 29 | 2.0 | 7.0 | 0.00 | 0.00 | 0.00 | 71 | 1012.7 |
| 20260904153635 | 75 | 263 | 1.0 | 7.0 | 0.00 | 0.00 | 0.00 | 74 | 1012.7 |
| 20260904153137 | 74 | 355 | 1.0 | 7.0 | 0.00 | 0.00 | 0.00 | 73 | 1012.7 |
| 20260904152131 | 74 | 334 | 1.0 | 7.0 | 0.00 | 0.00 | 0.00 | 77 | 1012.7 |
| 20260904151629 | 74 | 12 | 0.0 | 7.0 | 0.00 | 0.00 | 0.00 | 76 | 1012.8 |
| 20260904151129 | 74 | 0 | 1.0 | 8.0 | 0.00 | 0.00 | 0.00 | 76 | 1012.9 |
| 20260904150629 | 74 | 340 | 1.0 | 8.0 | 0.00 | 0.00 | 0.00 | 76 | 1012.9 |
| 20260904150130 | 74 | 9 | 0.0 | 8.0 | 0.00 | 0.00 | 0.00 | 76 | 1012.9 |
| 20260904145629 | 74 | 220 | 0.0 | 5.0 | 0.00 | 0.00 | 0.00 | 80 | 1012.9 |
| 20260904145129 | 73 | 336 | 1.0 | 5.0 | 0.00 | 0.00 | 0.00 | 78 | 1012.9 |
| 20260904143629 | 72 | 319 | 1.0 | 9.0 | 0.00 | 0.00 | 0.00 | 80 | 1013.0 |
| 20260904142625 | 70 | 274 | 3.0 | 10.0 | 0.00 | 0.00 | 0.00 | 84 | 1013.2 |
| 20260904142125 | 70 | 346 | 3.0 | 12.0 | 0.00 | 0.00 | 0.00 | 83 | 1013.1 |
| 20260904141625 | 69 | 320 | 2.0 | 12.0 | 0.00 | 0.00 | 0.00 | 83 | 1013.2 |
| 20260904141125 | 69 | 47 | 3.0 | 9.0 | 0.00 | 0.00 | 0.00 | 85 | 1013.2 |
| 20260904135625 | 68 | 14 | 1.0 | 5.0 | 0.00 | 0.00 | 0.00 | 89 | 1013.2 |
| 20260904134626 | 67 | 346 | 0.0 | 6.0 | 0.00 | 0.00 | 0.00 | 90 | 1013.1 |
| 20260904134121 | 66 | 355 | 0.0 | 0.0 | 0.00 | 0.00 | 0.00 | 91 | 1013.1 |
| 20260904132121 | 65 | 350 | 0.0 | 0.0 | 0.00 | 0.00 | 0.00 | 93 | 1013.1 |
| 20260904131121 | 65 | 302 | 0.0 | 0.0 | 0.00 | 0.00 | 0.00 | 93 | 1013.0 |
| 20260904130621 | 65 | 0 | 0.0 | 0.0 | 0.00 | 0.00 | 0.00 | 93 | 1013.0 |
| 20260904130122 | 64 | 5 | 0.0 | 0.0 | 0.00 | 0.00 | 0.00 | 94 | 1012.9 |
| 20260904125617 | 64 | 19 | 0.0 | 0.0 | 0.00 | 0.00 | 0.00 | 94 | 1013.0 |
| 20260904125118 | 64 | 339 | 0.0 | 0.0 | 0.00 | 0.00 | 0.00 | 95 | 1013.0 |
| 20260904124617 | 64 | 12 | 0.0 | 0.0 | 0.00 | 0.00 | 0.00 | 95 | 1013.1 |
| 20260904124117 | 64 | 0 | 0.0 | 0.0 | 0.00 | 0.00 | 0.00 | 95 | 1013.2 |
| 20260904123618 | 64 | 340 | 0.0 | 0.0 | 0.00 | 0.00 | 0.00 | 95 | 1013.1 |
| 20260904123117 | 63 | 332 | 0.0 | 0.0 | 0.00 | 0.00 | 0.00 | 96 | 1013.0 |
| 20260904122618 | 63 | 10 | 0.0 | 0.0 | 0.00 | 0.00 | 0.00 | 96 | 1012.9 |
| 20260904122118 | 63 | 330 | 0.0 | 0.0 | 0.00 | 0.00 | 0.00 | 96 | 1013.1 |
| 20260904121617 | 63 | 355 | 0.0 | 0.0 | 0.00 | 0.00 | 0.00 | 96 | 1013.0 |
| 20260904121113 | 62 | 355 | 0.0 | 0.0 | 0.00 | 0.00 | 0.00 | 96 | 1013.0 |
| 20260904120613 | 62 | 355 | 0.0 | 0.0 | 0.00 | 0.00 | 0.00 | 96 | 1013.0 |
| 20260904120114 | 62 | 355 | 0.0 | 0.0 | 0.00 | 0.00 | 0.00 | 96 | 1013.0 |
| 20260904115612 | 62 | 17 | 0.0 | 0.0 | 0.00 | 0.00 | 0.00 | 96 | 1013.0 |
| 20260904115112 | 62 | 18 | 0.0 | 0.0 | 0.00 | 0.00 | 0.00 | 96 | 1013.0 |
| 20260904114110 | 62 | 0 | 0.0 | 0.0 | 0.00 | 0.00 | 0.00 | 96 | 1012.9 |
| 20260904113607 | 61 | 15 | 0.0 | 0.0 | 0.00 | 0.00 | 0.00 | 96 | 1012.7 |
| 20260904113106 | 61 | 5 | 0.0 | 0.0 | 0.00 | 0.00 | 0.00 | 96 | 1012.8 |
| 20260904112608 | 61 | 0 | 0.0 | 0.0 | 0.00 | 0.00 | 0.00 | 96 | 1012.8 |
| 20260904112105 | 61 | 355 | 0.0 | 0.0 | 0.00 | 0.00 | 0.00 | 96 | 1012.8 |
| 20260904111601 | 61 | 355 | 0.0 | 0.0 | 0.00 | 0.00 | 0.00 | 96 | 1012.8 |
| 20260904111059 | 61 | 355 | 0.0 | 0.0 | 0.00 | 0.00 | 0.00 | 96 | 1012.7 |
| 20260904110559 | 61 | 355 | 0.0 | 0.0 | 0.00 | 0.00 | 0.00 | 96 | 1012.7 |
| 20260904105549 | 0 | 355 | 0.0 | 0.0 | 0.00 | 0.00 | 0.00 | 1012.6 | |
| 20260904105023 | 0 | 0.0 | 0.0 | 0.00 | 0.00 | 0.00 | 1012.6 | ||
| 20260904104521 | 0 | 0.0 | 0.0 | 0.00 | 0.00 | 0.00 | 1012.5 | ||
| 20260904102325 | 0 | 0.0 | 0.0 | 0.00 | 0.00 | 0.00 | 1012.1 | ||
| 20260904101821 | 0 | 0.0 | 0.0 | 0.00 | 0.00 | 0.00 | 1012.1 | ||
| 20260904101225 | 0 | 0.0 | 0.0 | 0.00 | 0.00 | 0.00 | 1012.1 | ||
| 20260904100215 | 0 | 0.0 | 0.0 | 0.00 | 0.00 | 0.00 | 1012.1 | ||
| 20260904095713 | 0 | 0.0 | 0.0 | 0.00 | 0.00 | 0.00 | 1012.1 | ||
| 20260904094616 | 0 | 0.0 | 0.0 | 0.00 | 0.00 | 0.00 | 1011.9 | ||
| 20260904094020 | 0 | 0.0 | 0.0 | 0.00 | 0.00 | 0.00 | 1011.9 | ||
| 20260904093519 | 0 | 0.0 | 0.0 | 0.00 | 0.00 | 0.00 | 1011.8 | ||
| 20260904093009 | 0 | 0.0 | 0.0 | 0.00 | 0.00 | 0.00 | 1011.8 | ||
| 20260904092423 | 0 | 0.0 | 0.0 | 0.00 | 0.00 | 0.00 | 1011.8 | ||
| 20260904091921 | 0 | 0.0 | 0.0 | 0.00 | 0.00 | 0.00 | 1011.8 | ||
| 20260904091412 | 0 | 0.0 | 0.0 | 0.00 | 0.00 | 0.00 | 1011.7 | ||
| 20260904090824 | 0 | 0.0 | 0.0 | 0.00 | 0.00 | 0.00 | 1011.7 | ||
| 20260904090317 | 0 | 0.0 | 0.0 | 0.00 | 0.00 | 0.00 | 1011.6 | ||
| 20260904085215 | 0 | 0.0 | 0.0 | 0.00 | 0.00 | 0.00 | 1011.6 | ||
| 20260904084628 | 0 | 0.0 | 0.0 | 0.00 | 0.00 | 0.00 | 1011.6 | ||
| 20260904084108 | 0 | 0.0 | 0.0 | 0.00 | 0.00 | 0.00 | 1011.5 | ||
| 20260904083525 | 0 | 0.0 | 0.0 | 0.00 | 0.00 | 0.00 | 1011.5 | ||
| 20260904083014 | 0 | 0.0 | 0.0 | 0.00 | 0.00 | 0.00 | 1011.5 | ||
| 20260904081905 | 0 | 0.0 | 0.0 | 0.00 | 0.00 | 0.00 | 1011.5 | ||
| 20260904081316 | 62 | 0.0 | 0.0 | 0.00 | 0.00 | 0.00 | 96 | 1011.5 | |
| 20260904080725 | 62 | 9 | 0.0 | 0.0 | 0.00 | 0.00 | 0.00 | 96 | 1011.5 |
| 20260904080220 | 62 | 9 | 0.0 | 0.0 | 0.00 | 0.00 | 0.00 | 96 | 1011.4 |
| 20260904075714 | 62 | 9 | 0.0 | 0.0 | 0.00 | 0.00 | 0.00 | 96 | 1011.4 |
| 20260904075208 | 62 | 5 | 0.0 | 0.0 | 0.00 | 0.00 | 0.00 | 96 | 1011.4 |
| 20260904074703 | 62 | 355 | 0.0 | 0.0 | 0.00 | 0.00 | 0.00 | 96 | 1011.4 |
| 20260904074157 | 62 | 0 | 0.0 | 0.0 | 0.00 | 0.00 | 0.00 | 96 | 1011.5 |
| 20260904073144 | 62 | 348 | 0.0 | 0.0 | 0.00 | 0.00 | 0.00 | 95 | 1011.5 |
| 20260904072638 | 62 | 5 | 0.0 | 0.0 | 0.00 | 0.00 | 0.00 | 95 | 1011.6 |
| 20260904071627 | 62 | 10 | 0.0 | 0.0 | 0.00 | 0.00 | 0.00 | 95 | 1011.6 |
| 20260904071120 | 62 | 0 | 0.0 | 0.0 | 0.00 | 0.00 | 0.00 | 95 | 1011.6 |
| 20260904070615 | 62 | 0 | 0.0 | 0.0 | 0.00 | 0.00 | 0.00 | 95 | 1011.6 |
| 20260904065603 | 62 | 0 | 0.0 | 0.0 | 0.00 | 0.00 | 0.00 | 95 | 1011.6 |
| 20260904065055 | 62 | 0 | 0.0 | 0.0 | 0.00 | 0.00 | 0.00 | 95 | 1011.6 |
| 20260904064550 | 63 | 0 | 0.0 | 0.0 | 0.00 | 0.00 | 0.00 | 95 | 1011.7 |
| 20260904064044 | 63 | 0 | 0.0 | 0.0 | 0.00 | 0.00 | 0.00 | 95 | 1011.7 |
| 20260904063538 | 63 | 0 | 0.0 | 0.0 | 0.00 | 0.00 | 0.00 | 95 | 1011.7 |
| 20260904063031 | 63 | 0 | 0.0 | 0.0 | 0.00 | 0.00 | 0.00 | 95 | 1011.7 |